Location: La Brionne
(46.1728°N, 1.7849°E)
Time: 09:00:48
(UTC+00:00)

Cosmos 2322 Rocket - Visible Passes

Search period start: 28 October 2021 00:00
Search period end: 07 November 2021 00:00
Orbit: 833 x 850 km, 71.0° (Epoch: 27 October)

Date Brightness Start Highest point End Pass type
(mag) Time Alt. Az. Time Alt. Az. Time Alt. Az.
28 Oct 4.0 18:50:18 10° WSW 18:55:06 28° NW 18:59:57 10° N visible
29 Oct 3.9 18:35:09 10° WSW 18:40:01 30° NW 18:44:56 10° N visible
30 Oct 3.9 18:20:00 10° WSW 18:24:56 31° NW 18:29:54 10° N visible
31 Oct 3.8 18:04:51 10° WSW 18:09:50 32° NW 18:14:53 10° NNE visible
01 Nov 3.8 17:49:42 10° WSW 17:54:45 33° NW 17:59:51 10° NNE visible
02 Nov 3.7 17:34:34 10° WSW 17:39:40 35° NW 17:44:49 10° NNE visible
03 Nov 3.6 17:19:26 10° WSW 17:24:35 36° NW 17:29:48 10° NNE visible
04 Nov 3.5 17:04:18 10° WSW 17:09:30 38° NW 17:14:46 10° NNE visible
06 Nov 4.9 18:24:12 10° NW 18:25:04 10° NNW 18:25:56 10° NNW visible
